Location: Bosmont
(49.7318°N, 3.8587°E)
Time: 06:19:26
(UTC+00:00)

COSMOS 2251 DEB - Visible Passes

Search period start: 21 May 2024 00:00
Search period end: 31 May 2024 00:00
Orbit: 690 x 704 km, 74.0° (Epoch: 18 May)

Date Brightness Start Highest point End Pass type
(mag) Time Alt. Az. Time Alt. Az. Time Alt. Az.
21 May ? 00:29:28 10° NNW 00:34:22 69° WSW 00:36:09 38° S visible
21 May ? 21:52:38 10° NNE 21:54:08 11° NE 21:55:37 10° NE visible
21 May ? 23:31:07 10° NNW 23:35:54 50° ENE 23:38:29 25° SE visible
22 May ? 01:12:11 10° NW 01:16:08 25° W 01:17:13 23° WSW visible
22 May ? 22:33:05 10° N 22:37:04 24° NE 22:40:48 11° ESE visible
23 May ? 00:13:08 10° NNW 00:17:59 60° WSW 00:19:31 40° SSW visible
23 May ? 21:35:49 10° NNE 21:37:49 12° NE 21:39:49 10° ENE visible
23 May ? 23:14:37 10° NNW 23:19:29 57° ENE 23:21:50 29° SE visible
24 May ? 00:55:54 10° NW 00:59:36 22° W 01:00:34 20° WSW visible
24 May ? 22:16:28 10° N 22:20:35 26° NE 22:24:07 13° ESE visible
24 May ? 23:56:38 10° NNW 00:01:25 53° WSW 00:02:51 39° SSW visible
25 May ? 21:18:54 10° NNE 21:21:18 13° NE 21:23:40 10° ENE visible
25 May ? 22:57:57 10° NNW 23:02:51 64° ENE 23:05:08 31° SE visible
26 May ? 00:39:26 10° NW 00:42:52 19° W 00:43:52 18° WSW visible
26 May ? 21:59:39 10° N 22:03:54 28° NE 22:07:23 14° ESE visible
26 May ? 23:39:56 10° NNW 23:44:38 47° WSW 23:46:07 35° SSW visible
27 May ? 21:01:52 10° N 21:04:34 15° NE 21:07:16 10° ENE visible
27 May ? 22:41:06 10° NNW 22:46:01 71° ENE 22:48:21 31° SE visible
28 May ? 00:22:48 10° NW 00:25:56 17° W 00:27:04 16° WSW visible
28 May ? 21:42:38 10° N 21:47:01 31° NE 21:50:33 14° ESE visible
28 May ? 23:23:02 10° NW 23:27:39 42° WSW 23:29:17 31° SSW visible
29 May ? 20:44:39 10° N 20:47:38 16° NE 20:50:35 10° E visible
29 May ? 22:24:03 10° NNW 22:28:59 79° ENE 22:31:28 29° SSE visible
30 May ? 00:06:01 10° WNW 00:08:48 15° W 00:10:12 14° WSW visible
30 May ? 21:25:27 10° N 21:29:56 34° NE 21:33:38 14° ESE visible
30 May ? 23:05:58 10° NW 23:10:27 37° WSW 23:12:21 27° SSW visible
